This demonstration page uses our WeatherBlox Daily Observations layout. Learn more.

Left ArrowRight Arrow

Hourly Observations for October 20, 2018

Temp ( °F °C ) Dew Point ( °F °C ) Humidity (%) Winds ( mph kmh ) Pressure ( in mb ) Visibility ( mi km ) Precip ( " mm )
12:51 am 00:51 Clear 58 14.4 54 12.2 87 87 SE 8 13 30.07 1018 10 16 0.00 0.00
1:51 am 01:51 Mostly Cloudy 62 16.7 54 12.2 75 75 SSE 10 17 30.06 1018 10 16 0.00 0.00
2:51 am 02:51 Cloudy 63 17.2 55 12.8 76 76 SSE 10 17 30.05 1018 10 16 0.00 0.00
3:51 am 03:51 Cloudy 63 17.2 55 12.8 76 76 ESE 7 11 30.05 1018 10 16 0.00 0.00
4:51 am 04:51 Cloudy 62 16.7 55 12.8 78 78 SSE 8 13 30.06 1018 10 16 0.00 0.00
5:51 am 05:51 Cloudy 62 16.7 55 12.8 78 78 ESE 5 7 30.08 1019 10 16 0.00 0.00
6:51 am 06:51 Cloudy 62 16.7 55 12.8 78 78 E 5 7 30.09 1019 10 16 0.00 0.00
7:51 am 07:51 Cloudy 64 17.8 56 13.3 75 75 ESE 5 7 30.11 1020 10 16 0.00 0.00
8:51 am 08:51 Cloudy 66 18.9 55 12.8 68 68 E 5 7 30.13 1020 10 16 0.00 0.00
9:51 am 09:51 Cloudy 69 20.6 53 11.7 57 57 SE 8 13 30.12 1020 10 16 0.00 0.00
10:51 am 10:51 Cloudy 74 23.3 47 8.3 38 38 SSE 16 26 30.09 1019 10 16 0.00 0.00
11:51 am 11:51 Cloudy 78 25.6 45 7.2 31 31 ESE 24 39 30.07 1018 10 16 0.00 0.00
12:51 pm 12:51 Mostly Cloudy 78 25.6 45 7.2 31 31 ESE 17 28 30.04 1017 10 16 0.00 0.00
1:51 pm 13:51 Mostly Cloudy 81 27.2 44 6.7 27 27 SSE 20 31 30.00 1016 10 16 0.00 0.00
2:51 pm 14:51 Mostly Cloudy 81 27.2 45 7.2 28 28 SSE 21 33 29.99 1016 10 16 0.00 0.00
3:51 pm 15:51 Sunny 80 26.7 46 7.8 30 30 SE 17 28 29.98 1015 10 16 0.00 0.00
4:51 pm 16:51 Sunny 78 25.6 44 6.7 30 30 SE 13 20 29.98 1015 10 16 0.00 0.00
5:51 pm 17:51 Partly Cloudy 74 23.3 45 7.2 36 36 SE 14 22 30.00 1016 10 16 0.00 0.00
6:51 pm 18:51 Cloudy 73 22.8 46 7.8 38 38 SE 9 15 30.03 1017 10 16 0.00 0.00
7:51 pm 19:51 Cloudy 72 22.2 45 7.2 38 38 SE 13 20 30.05 1018 10 16 0.00 0.00
8:51 pm 20:51 Cloudy 70 21.1 45 7.2 41 41 ESE 12 19 30.07 1018 10 16 0.00 0.00
9:51 pm 21:51 Cloudy 69 20.6 42 5.6 38 38 ESE 16 26 30.09 1019 10 16 0.00 0.00
10:51 pm 22:51 Cloudy 68 20 43 6.1 40 40 SE 18 30 30.09 1019 10 16 0.00 0.00
11:51 pm 23:51 Cloudy 66 18.9 42 5.6 42 42 ESE 13 20 30.09 1019 10 16 0.00 0.00

Powered by AerisWeather